Location: Roanoke
(37.2710°N, 79.9420°W)
Time: 15:54:27
(UTC-05:00)

S-56A Canister/Altair - Pass Details

Date: 24 November 2019
Orbit: 633 x 2499 km, 38.9° (Epoch: 06 December)

Event Time Altitude Azimuth Distance (km) Brightness Sun altitude
Rises 11:21:32 0° 176° (S) 6,163 13.3 31.2°
Reaches altitude 10° 11:30:21 10° 148° (SSE) 5,051 12.9 31.5°
Maximum altitude 11:33:59 11° 133° (SE) 4,830 12.5 31.6°
Drops below altitude 10° 11:37:27 10° 118° (ESE) 4,804 12.2 31.7°
Sets 11:44:55 0° 89° (E) 5,396 11.9 31.9°
